Weather in Korobitsyno

Russia / Saint-Petersburg and Leningrad Oblast     60°31′08″N   29°43′31″E
temp.,
°C
wind,
m/s
gust,
m/s
humid.,
%
clouds,
%
prec.,
mm/h
press.,
hPa
HPBL,
m
8 may, sat
sat800:00+2sse229697 0.0 100419
03:00+3se2497100 0.0 1004109
06:00+4sse1297100 0.2 100382
09:00+4n1297100 0.8 1002195
12:00+4nw3597100 3.5 1002666
15:00+3wnw4897100 6.4 1004521
18:00+3w3897100 2.4 1006526
21:00+3sw2795100 2.5 1008196
9 may, sun
sun900:00+1wsw29905 0.0 1008166
03:000w310890 0.0 1010211
06:000w38870 0.0 1012222
09:00+6wnw36650 0.0 1014474
12:00+10w36385 0.0 10151815
15:00+10w593970 0.0 10171718
18:00+10wsw41044100 0.0 10171615
21:00+5s3869100 0.0 1018170
10 may, mon
mon1000:00+4ssw257394 0.0 1018103
03:00+4sse2775100 0.0 1018150
06:00+6s3982100 0.0 1018843
09:00+6s41194100 0.4 1018617
12:00+10ssw498480 0.0 1018661
15:00+16sw496592 0.0 10181068
18:00+15ssw31271100 0.0 1019502
21:00+14ssw41377100 0.0 1019396
11 may, tue
tue1100:00+13ssw51583100 0.0 1021471
03:00+12ssw51583100 0.0 1021514
06:00+11ssw41387100 0.0 1022454
09:00+15ssw5116653 0.0 1022646
12:00+19ssw69485 0.0 10231138
15:00+21ssw69415 0.0 10221432
18:00+20ssw594685 0.0 10221510
21:00+15s396824 0.0 1023206
12 may, wed
wed1200:00+13s41175100 0.0 1024295
03:00+11s311805 0.0 1024238
06:00+11s39810 0.0 1024205
09:00+17s47560 0.0 1024537
12:00+20s464470 0.0 10241046
15:00+21s453698 0.0 10231247
18:00+21s344598 0.0 10231012
21:00+16se2266100 0.0 102312